Theta_e
302 302 303 303 303 303 303 303 302 303 303 302 301 301 302 302 301 302 307 311 313 316 316 316 317 317 319 322 325 324 325 323 323 327 327 326 324 323 325 329 330 332 334 333 333 331 331 336 334 337 340 336 334 332
303 303 302 301 302 302 303 303 302 303 303 302 301 301 301 302 302 301 307 312 312 313 315 313 314 314 315 316 318 320 324 326 327 328 326 324 324 324 329 326 329 331 332 332 334 340 336 335 334 333 332 332 332 331
302 301 301 302 302 302 302 303 303 303 303 303 302 302 301 302 302 301 304 307 309 311 313 314 314 313 313 312 312 316 319 321 323 323 325 328 330 330 328 324 328 329 329 330 334 330 331 332 335 331 329 328 329 328
299 301 302 302 302 302 302 302 303 303 302 303 303 302 302 302 302 301 304 307 308 310 312 314 313 314 314 314 314 312 313 315 318 320 323 326 326 325 327 326 328 326 329 331 332 329 328 328 326 329 327 329 328 327
299 302 302 301 301 302 303 302 302 302 302 303 303 303 302 301 301 302 304 305 307 309 313 315 311 312 314 314 315 315 314 315 317 318 320 322 321 322 323 324 324 324 329 328 330 332 332 334 328 326 326 326 326 326
300 299 301 300 300 302 302 302 302 302 302 303 303 303 302 301 301 303 308 308 307 307 310 312 313 313 313 313 312 313 315 317 316 318 319 319 320 320 322 326 325 323 324 324 327 324 324 325 325 324 324 324 325 325
300 300 298 298 299 301 302 302 302 303 304 304 304 303 302 301 302 304 306 304 305 307 309 313 315 315 312 313 314 314 314 314 316 317 319 318 319 319 320 325 325 324 324 325 324 324 324 323 323 323 323 324 323 323
299 300 299 298 299 302 302 303 303 303 303 303 303 302 302 302 302 302 304 304 304 308 310 314 314 314 315 317 317 316 315 315 316 317 318 318 319 322 323 322 321 323 326 325 324 324 323 323 323 324 326 326 324 326
299 300 300 297 299 303 302 303 303 303 302 302 302 302 303 303 304 306 305 305 307 309 314 312 313 313 317 318 317 317 317 316 316 318 318 320 321 323 321 323 324 324 326 325 322 322 322 322 323 327 326 328 328 327
299 300 301 297 299 302 302 303 303 302 301 302 303 304 306 306 306 305 306 310 311 312 312 313 312 313 314 315 318 322 320 320 320 318 318 320 321 321 319 323 325 324 325 324 325 327 327 324 326 327 327 326 329 328
300 301 301 298 299 300 302 303 303 302 302 303 305 306 308 307 307 310 311 310 312 313 313 312 313 313 311 313 318 321 320 322 322 320 318 319 321 322 322 321 321 321 321 325 324 324 324 325 327 326 326 327 329 323
300 301 301 298 298 300 302 303 302 303 305 305 306 307 308 311 312 313 314 313 313 314 314 315 314 314 313 314 320 322 321 321 324 321 324 324 323 324 320 323 324 322 322 325 324 325 328 328 327 328 327 327 327 323
299 298 298 298 297 300 302 303 302 303 304 306 307 309 310 312 315 313 314 315 314 314 317 320 321 318 317 318 320 321 322 319 318 322 322 326 327 322 319 317 328 328 328 327 329 328 327 330 329 329 330 329 331 328
300 301 301 300 300 301 302 303 302 303 304 308 309 313 311 313 313 313 313 316 316 320 319 319 322 321 318 321 320 320 320 325 326 328 330 331 329 328 326 328 328 328 327 328 327 327 328 328 328 328 329 329 329 329
302 301 301 302 304 303 303 303 302 303 305 308 308 311 311 312 315 316 316 317 316 320 319 322 323 322 323 322 322 319 325 326 328 325 328 328 328 327 327 326 325 326 326 328 327 325 326 326 327 328 326 322 321 327
302 303 304 303 303 303 303 302 303 305 306 308 309 311 312 314 316 317 317 318 319 321 322 322 322 322 322 323 323 324 327 323 325 327 328 328 326 324 325 323 323 327 327 327 326 327 325 326 325 324 324 324 324 324
303 305 303 303 303 302 303 305 305 306 309 310 312 312 312 313 315 315 317 319 319 322 322 322 323 323 320 322 325 321 326 326 328 328 328 329 328 327 325 323 323 327 328 328 328 327 326 325 325 324 325 323 322 321
304 305 303 303 303 303 304 303 307 309 309 311 311 314 315 313 314 314 315 318 320 321 323 323 325 323 326 327 327 328 327 327 329 329 329 328 327 326 325 327 324 324 325 326 326 326 326 325 326 325 323 322 321 319
306 304 303 303 304 305 305 306 307 310 312 314 313 312 311 312 313 315 316 315 317 320 322 326 326 327 328 326 327 328 329 328 328 328 326 326 326 326 326 325 325 326 325 325 326 326 325 323 321 320 319 316 315 314
304 303 302 303 304 305 308 309 307 311 312 313 312 312 313 314 315 318 320 322 323 323 324 326 326 327 327 329 329 328 327 329 329 329 325 327 325 326 325 324 326 325 325 325 324 323 323 321 320 319 318 318 318 316
303 303 302 304 305 306 308 310 312 312 312 313 313 313 315 319 320 320 321 321 322 322 324 325 325 326 327 327 326 326 328 327 328 326 326 324 325 323 322 320 320 319 320 322 322 322 322 322 321 319 319 318 317 314
306 302 305 304 305 308 311 311 313 314 313 314 314 316 318 321 321 320 321 321 320 322 323 324 324 327 328 327 327 324 323 321 319 318 317 317 319 318 317 318 318 319 319 319 320 320 318 318 319 319 315 313 313 312
304 306 307 308 309 310 312 311 314 315 315 316 318 320 321 322 322 323 324 322 321 323 323 324 325 324 325 323 323 323 321 319 318 316 313 314 314 313 313 313 314 314 315 315 318 317 315 316 314 314 313 312 312 311
306 307 309 309 309 309 309 312 313 314 318 321 322 322 323 324 323 323 323 325 324 326 326 326 325 327 326 323 322 319 316 316 316 317 317 315 315 313 313 313 314 314 314 314 316 315 314 314 314 314 313 312 312 311
308 310 308 314 308 310 314 319 321 321 321 322 323 323 323 321 321 322 323 324 324 324 326 326 326 328 326 326 319 320 322 320 319 317 317 317 316 315 314 313 313 313 314 313 313 313 313 313 312 311 310 309 309 308
308 311 315 314 318 319 322 323 322 321 321 320 320 321 321 320 321 323 324 324 326 326 326 325 323 324 323 320 318 318 318 317 317 317 315 315 315 315 316 315 314 313 312 313 313 312 312 311 310 309 308 305 304 306
314 321 322 320 322 322 321 320 319 320 321 321 321 321 321 322 323 323 324 324 324 322 321 318 320 319 320 319 318 317 318 317 317 316 315 314 314 314 313 313 312 311 312 311 311 311 310 310 309 309 308 308 307 307
319 319 322 320 321 320 321 320 320 321 321 320 321 322 322 321 323 323 322 320 318 318 318 319 318 317 317 316 315 314 315 315 316 315 315 314 314 312 312 311 309 307 308 307 308 309 308 308 308 308 308 308 308 307
321 320 321 321 320 321 320 322 322 321 320 320 323 323 323 322 321 321 320 316 316 316 316 315 315 314 313 313 312 312 312 312 314 316 316 316 314 312 311 311 311 311 310 307 305 305 305 306 305 306 307 307 307 307
321 320 321 321 322 321 322 320 321 321 320 320 320 319 319 319 320 318 318 317 315 314 314 315 315 314 314 314 313 311 310 310 311 311 313 313 311 310 310 310 311 310 310 309 308 306 305 305 305 305 306 307 308 307
321 319 320 319 318 318 319 318 317 318 318 318 318 318 318 318 316 316 315 316 316 316 316 316 315 313 312 311 312 313 312 310 309 309 308 309 309 309 309 309 309 309 308 308 308 308 308 307 308 308 308 308 308 307
318 318 319 319 318 317 317 318 317 317 317 318 318 318 318 318 317 316 314 315 316 316 314 315 315 313 312 311 310 309 309 308 307 307 307 308 308 308 308 308 308 308 308 308 308 308 308 308 308 308 308 308 308 307
318 318 318 318 318 317 317 317 317 317 317 317 317 317 317 318 318 318 316 315 314 315 315 314 314 313 312 312 310 309 309 308 307 307 307 304 303 304 305 307 307 308 309 309 309 308 308 308 308 308 308 308 308 307
Wind_Speed
19 19 19 18 16 15 15 14 13 12 11 10 10 9 8 8 11 13 11 7 8 8 15 14 13 11 11 7 8 11 7 7 7 10 11 12 14 15 17 17 16 14 12 13 13 16 21 15 1 7 7 2 1 3
17 16 16 16 16 15 15 15 13 12 11 10 10 9 8 7 8 11 11 6 6 9 12 23 20 19 18 17 11 9 13 12 5 7 7 9 13 13 15 15 15 15 14 10 10 2 5 5 1 3 6 2 3 4
13 14 16 16 15 16 16 15 14 13 13 12 10 9 8 7 7 8 12 11 11 7 12 16 12 18 22 23 18 10 10 13 11 7 9 9 11 10 12 14 17 18 10 11 11 11 9 8 5 8 7 6 3 5
13 13 11 11 12 13 14 15 14 14 13 12 10 9 9 8 9 9 12 12 10 8 5 7 4 9 8 10 16 20 17 19 15 9 9 11 13 11 14 18 15 9 6 13 10 8 11 11 12 8 6 5 4 6
13 13 12 11 11 11 11 12 13 14 13 13 11 10 9 9 10 11 14 14 11 9 7 10 29 24 17 14 13 16 18 14 10 11 11 12 12 14 14 16 15 13 8 8 11 5 10 11 5 3 3 6 6 10
13 14 13 12 10 10 11 13 12 12 13 13 11 10 8 8 8 8 3 11 8 11 4 4 6 14 16 12 23 19 15 11 10 11 11 13 20 11 13 15 21 21 17 16 15 10 6 8 7 5 5 8 13 13
13 12 12 13 11 10 9 11 11 11 9 10 10 10 9 10 8 10 6 6 10 9 3 5 5 11 13 14 12 11 16 8 11 12 13 14 15 10 13 16 24 23 22 11 10 7 9 10 8 9 11 11 15 16
13 12 11 10 9 8 8 7 7 8 9 9 9 9 8 9 11 13 15 18 8 6 5 4 5 7 16 9 9 10 11 11 12 13 13 10 11 12 17 23 23 22 24 14 15 11 11 8 11 11 10 12 15 15
12 12 10 9 8 6 6 7 9 9 8 8 7 5 4 5 6 4 8 10 9 6 3 4 9 9 4 7 6 9 8 12 11 13 14 13 13 9 13 20 23 20 20 18 16 7 13 13 15 14 14 15 14 15
13 12 10 8 8 7 5 8 9 10 9 9 6 4 3 6 9 11 8 5 4 5 4 6 9 13 11 6 3 6 4 8 11 11 14 14 15 22 23 23 8 8 15 16 13 6 19 6 10 13 10 11 13 15
12 11 11 9 10 7 8 10 12 13 11 6 5 3 1 10 10 4 4 5 6 4 6 7 12 11 10 11 3 2 2 4 5 4 9 14 16 20 23 21 10 7 20 20 13 7 9 10 5 11 9 11 9 16
10 10 11 10 12 8 10 13 17 17 6 3 5 4 3 4 5 4 4 4 6 5 6 9 7 10 7 5 2 4 2 3 6 7 2 5 12 4 10 13 13 9 10 22 5 4 6 9 9 12 12 10 7 22
10 10 10 10 12 11 13 16 18 12 6 8 5 3 2 4 4 6 10 7 6 5 3 4 5 1 2 2 3 4 5 5 4 4 4 3 5 3 2 20 7 20 4 4 5 5 3 9 11 9 10 16 18 17
9 9 11 11 12 14 16 17 15 12 4 3 3 3 4 5 6 10 6 3 5 1 4 2 4 4 4 5 2 3 4 2 6 5 2 6 5 9 7 5 7 10 6 5 4 2 6 6 7 11 13 15 9 18
7 8 8 9 11 16 18 19 16 11 3 2 2 4 7 8 7 10 4 4 4 2 1 1 4 3 3 4 4 4 4 5 4 2 3 2 4 5 6 7 4 2 3 2 9 6 7 7 9 13 15 21 25 15
9 8 8 12 15 16 17 15 12 5 3 3 6 7 8 9 6 6 7 7 6 6 3 4 4 3 4 3 4 0 5 3 3 0 1 4 4 6 6 5 4 4 3 5 11 12 12 11 13 14 18 21 13 17
12 3 14 17 16 16 17 10 8 4 5 5 5 6 6 8 7 8 6 7 6 5 3 3 4 2 1 3 2 2 3 4 4 4 4 5 5 6 6 4 7 3 5 6 9 10 11 10 13 14 12 17 19 19
1 15 18 18 17 14 9 3 4 4 6 7 8 1 2 3 7 9 7 6 3 3 3 2 4 5 5 3 4 2 7 9 7 6 6 7 7 6 5 4 9 9 10 12 12 11 11 14 13 11 15 14 15 14
14 19 20 21 13 6 5 4 4 3 4 5 6 4 2 6 8 9 6 9 8 3 5 4 3 3 3 3 2 5 5 6 7 6 7 8 10 9 10 11 15 15 15 15 14 13 13 14 12 9 10 12 12 12
15 17 20 14 5 1 4 4 6 4 2 1 2 3 3 4 5 5 6 5 3 2 2 4 3 3 4 4 5 5 5 6 6 7 6 4 7 16 20 12 8 13 15 15 15 15 14 15 15 14 13 12 12 8
12 10 14 7 3 8 3 2 3 2 2 2 2 2 4 3 3 1 2 1 1 1 1 4 4 2 4 7 11 10 5 6 6 8 6 1 4 4 15 15 9 12 10 10 10 11 11 10 13 14 13 11 10 10
4 13 5 6 4 4 4 7 3 2 1 2 2 2 2 1 3 2 3 1 3 3 2 2 3 4 6 8 9 14 13 15 13 10 6 10 4 6 6 5 10 7 9 10 9 10 13 7 5 14 11 10 10 8
10 4 3 3 3 3 4 6 3 0 2 2 2 2 1 1 2 4 2 1 1 1 0 1 7 8 7 12 14 13 10 12 9 8 4 1 11 11 11 10 10 9 8 9 8 9 10 5 7 10 9 8 4 7
1 1 2 2 2 3 2 2 1 2 3 3 1 3 2 2 1 2 4 3 4 3 3 6 7 5 4 8 7 8 11 8 5 2 2 9 8 9 11 11 11 11 10 10 9 9 8 7 4 8 4 4 1 5
2 4 3 4 3 3 3 2 2 1 2 2 3 5 1 2 3 4 4 3 5 5 5 6 7 5 7 7 5 6 6 5 6 3 3 1 7 12 13 12 10 11 9 9 8 8 7 7 8 9 11 9 7 4
4 6 8 6 6 5 3 2 0 7 4 4 4 3 3 3 3 5 3 4 5 6 5 4 6 7 6 11 4 5 7 11 11 10 13 14 13 14 8 6 6 10 9 8 7 6 6 7 6 3 8 6 4 5
4 5 2 6 4 6 2 4 4 4 7 5 3 2 4 5 4 3 3 2 1 5 10 7 7 7 5 4 6 3 8 9 5 2 5 8 9 8 9 11 10 9 9 8 7 6 5 5 4 4 3 1 2 3
3 5 8 7 6 6 11 7 6 5 4 3 2 5 3 2 3 1 1 1 2 7 6 5 4 6 6 5 9 8 4 3 6 5 6 6 7 7 5 8 6 3 5 8 10 10 9 7 7 6 4 4 4 3
3 3 4 6 8 6 4 4 4 4 3 2 6 6 4 3 5 4 5 4 5 5 2 4 2 4 7 7 7 9 10 10 9 4 5 4 3 6 6 3 6 7 7 7 3 4 6 3 5 4 5 4 3 4
6 7 10 14 13 7 6 6 8 5 7 10 10 9 7 5 9 6 5 5 2 7 5 6 10 11 9 9 9 8 10 10 11 12 8 7 8 6 6 5 3 3 3 3 4 8 3 3 9 6 7 5 7 8
4 6 12 11 9 5 6 8 7 6 7 8 8 7 6 4 8 6 8 6 4 4 6 7 10 9 9 9 10 6 9 9 9 8 10 7 7 6 5 4 4 4 4 4 5 6 5 6 7 5 5 5 6 5
4 5 5 8 6 5 3 4 3 3 4 4 5 4 5 3 7 6 7 10 9 6 5 4 9 8 6 6 6 7 8 8 8 7 8 8 7 7 9 7 4 5 5 6 5 6 6 6 7 7 7 8 8 8
1 3 2 2 2 1 4 2 2 1 1 3 5 5 7 6 7 4 5 7 6 9 10 7 7 6 3 4 4 2 3 5 4 6 8 6 4 3 7 8 7 8 8 7 7 7 6 4 7 7 7 8 10 10
Wind_Direction
273 272 273 272 273 273 271 271 270 271 271 275 286 309 304 310 330 346 303 294 301 296 295 298 317 309 298 261 283 13 302 244 266 244 255 267 266 263 269 264 242 235 208 222 234 247 251 6 113 266 61 116 311 352
267 265 267 272 269 267 269 267 268 262 262 265 275 291 296 296 313 335 281 6 321 277 294 308 289 280 284 288 300 301 293 308 315 327 259 273 268 269 270 270 268 252 254 228 247 90 215 239 269 100 274 309 295 285
263 272 272 266 265 265 264 262 264 262 256 256 265 277 286 281 288 309 302 314 292 276 276 251 252 256 240 242 252 267 269 279 292 317 311 293 286 293 274 258 265 265 233 255 268 252 204 191 221 211 237 238 290 326
267 262 265 267 268 268 260 255 255 257 260 258 258 264 274 266 270 284 290 290 292 291 284 275 194 266 251 250 233 237 260 280 290 296 282 278 274 276 283 294 299 297 49 321 272 258 258 263 261 250 248 155 222 267
261 255 258 262 270 273 256 251 251 250 254 251 244 251 265 266 270 280 276 264 260 270 308 310 314 284 261 252 252 241 242 247 256 258 254 255 261 276 281 284 278 282 283 218 261 281 356 270 254 243 339 308 272 270
261 256 255 257 271 279 259 252 247 242 247 244 237 241 249 257 265 289 248 194 241 253 279 291 318 271 251 249 225 242 247 243 248 252 253 259 258 253 269 272 279 283 281 295 259 279 266 294 350 6 309 275 276 277
264 261 257 256 261 274 260 248 239 238 230 218 222 229 237 243 244 248 326 294 325 321 261 262 264 217 219 244 237 241 226 230 249 247 244 255 263 266 255 258 262 278 280 268 318 312 275 273 284 290 283 268 255 252
259 258 258 249 253 265 245 230 223 212 201 202 213 223 231 248 265 270 258 245 234 256 263 263 264 263 209 224 235 209 230 222 225 247 254 253 275 261 249 254 272 264 276 262 273 258 251 249 243 254 262 257 253 242
252 252 254 244 243 247 230 218 202 196 196 192 187 203 227 247 241 275 207 179 186 268 280 273 264 285 163 257 294 299 251 243 236 231 236 222 227 238 255 241 247 249 256 271 257 254 252 242 242 239 247 249 237 251
245 240 243 239 227 222 222 200 190 182 175 167 171 203 233 211 163 128 149 169 201 213 233 249 273 276 302 300 314 342 354 302 265 255 242 234 243 243 236 255 301 326 287 287 300 135 260 271 260 259 268 266 277 241
230 233 228 230 217 219 208 190 180 167 157 184 224 224 62 159 197 208 226 206 196 228 209 246 237 254 248 257 246 104 336 328 272 270 265 244 239 240 229 234 178 200 259 241 234 268 282 278 293 262 263 283 319 -0
225 228 227 226 211 214 195 191 185 178 192 231 295 280 206 214 209 239 202 210 217 242 190 218 235 197 231 279 137 185 237 230 260 341 351 251 244 237 321 303 195 126 258 264 227 255 343 324 310 296 287 284 124 189
231 227 226 218 210 205 195 195 196 196 256 272 233 236 202 217 228 231 198 205 212 219 353 358 288 259 201 201 210 221 213 243 358 268 222 274 305 176 36 308 143 188 153 67 53 21 4 357 315 317 334 329 0 43
233 228 223 213 212 208 201 198 193 202 269 260 225 228 234 216 226 222 258 99 269 176 221 259 270 230 196 188 214 251 290 220 218 223 60 37 102 132 185 290 47 66 66 51 62 19 31 13 341 337 357 29 57 117
212 193 206 204 189 184 184 183 185 197 262 240 226 243 230 255 6 302 315 227 220 339 244 299 238 237 196 227 201 201 235 239 3 319 318 347 3 72 60 39 34 55 141 135 126 98 79 47 37 52 40 67 39 58
183 162 179 168 158 163 168 169 178 214 267 239 217 247 277 301 302 301 313 333 338 321 309 238 263 239 213 265 227 128 338 350 272 141 221 190 70 52 49 34 51 354 10 44 145 101 68 66 86 78 64 77 88 71
160 151 158 156 157 161 161 169 181 219 236 226 235 235 288 296 297 301 319 321 311 305 255 230 232 93 58 265 117 257 242 202 136 78 47 50 56 63 56 2 301 14 42 50 95 103 110 110 106 102 98 88 83 80
312 152 153 155 149 150 170 257 254 246 250 245 259 303 356 284 288 284 301 309 325 294 283 261 296 168 219 180 98 233 44 60 61 74 70 55 74 86 117 97 99 94 85 96 103 111 104 97 88 76 87 91 95 86
147 154 156 150 157 183 179 221 238 264 270 323 316 323 292 276 278 273 287 275 274 259 287 265 307 11 52 98 73 56 59 84 92 74 64 65 81 94 99 92 94 92 88 87 88 91 95 96 101 101 93 91 89 91
155 156 160 171 178 268 231 210 202 251 266 265 280 250 233 251 272 260 257 261 243 257 305 0 7 52 47 37 66 83 93 111 104 94 63 41 67 82 65 37 64 86 91 93 103 110 114 110 110 114 121 123 118 123
133 164 175 188 244 224 270 281 234 228 237 270 292 250 269 261 260 290 293 212 169 69 279 26 32 357 53 67 72 85 81 86 85 98 108 314 292 148 138 151 159 98 83 119 106 115 111 128 131 126 160 167 136 106
125 155 166 205 259 245 249 209 264 313 207 260 275 264 301 179 133 197 224 168 39 36 48 8 339 47 70 76 85 88 100 101 102 105 80 35 59 45 54 101 117 120 134 125 114 118 119 135 168 157 142 118 105 83
137 174 243 227 255 247 267 340 278 61 235 277 254 237 225 155 126 209 113 78 226 135 209 82 68 85 82 102 101 110 119 108 109 117 128 204 65 66 71 59 46 62 77 62 127 105 69 78 72 100 99 78 92 137
51 294 275 307 302 277 308 271 249 283 272 255 26 83 82 62 26 72 61 47 17 30 94 113 115 106 87 74 53 68 81 91 128 174 241 92 90 73 53 48 69 69 61 55 74 82 86 97 124 84 93 147 90 67
223 184 209 230 255 251 239 236 170 218 282 319 56 98 143 181 88 74 55 47 30 40 58 90 104 100 99 83 12 1 334 301 270 110 97 125 132 128 111 91 58 37 60 81 68 67 65 64 59 51 47 33 9 24
252 192 186 220 168 234 219 188 178 143 157 80 82 71 83 70 35 59 53 19 41 50 57 65 71 68 49 111 145 240 280 39 25 34 29 32 30 25 40 47 69 57 45 44 61 67 59 59 54 36 121 119 88 316
282 9 242 182 201 184 198 83 71 63 53 36 14 84 59 56 42 62 72 62 99 123 117 125 135 160 206 235 168 91 130 112 89 290 31 38 51 37 39 34 41 16 20 46 46 41 38 37 40 22 14 3 93 2
298 343 358 359 62 40 38 49 46 32 25 352 47 47 72 62 61 63 121 183 71 110 99 95 31 46 52 0 356 16 62 165 151 214 101 80 72 57 50 94 62 87 64 53 32 43 22 19 3 357 8 344 353 2
317 11 343 52 63 69 58 36 8 36 14 60 90 85 91 104 144 153 189 186 130 111 120 122 129 174 144 117 61 27 15 355 11 345 292 148 144 62 43 46 151 180 153 123 138 99 52 52 19 355 348 329 301 284
357 67 66 66 65 61 52 63 52 64 78 87 89 101 116 133 137 166 199 173 109 70 63 55 35 26 19 13 81 62 42 26 14 12 19 36 32 19 13 14 37 19 28 342 164 169 155 244 232 234 246 319 356 11
17 43 82 83 87 89 62 93 90 93 90 95 122 133 123 143 130 68 44 24 23 56 34 38 82 46 24 18 3 21 91 66 49 38 16 27 55 40 22 12 23 37 12 358 329 328 352 335 333 327 343 351 331 325
67 58 51 87 104 132 144 111 98 111 111 154 173 161 120 125 101 89 21 339 350 90 97 350 36 59 35 81 76 76 45 54 40 32 18 17 19 5 1 355 30 1 353 326 328 329 358 334 331 339 333 327 333 325
29 19 19 42 17 20 88 49 19 339 21 67 49 60 106 96 53 49 95 36 351 359 39 49 37 69 75 38 45 102 122 124 116 96 72 62 46 8 358 355 0 351 350 334 334 342 330 351 329 329 314 318 324 326